COSMOS 2251 DEB, 35614

Orbit data source: Space-Track

COSMOS 2251 DEB, 35614 is space debris in LEO originally from a launch on Wed, 16 Jun 1993 UTC launched from the Plesetsk Missile And Space Complex (PKMTR). The debris from Iridium 33, an American commercial communications satellite, has been tracked extensively since its accidental collision with the defunct Russian satellite Cosmos 2251 in 2009. This event, occurring at high speed in low Earth orbit (LEO), generated thousands of pieces of space debris, significantly increasing the risk of further collisions. The Iridium 33 debris cloud has impacted space traffic management and orbital debris mitigation strategies, making it a subject of ongoing study in space situational awareness.

Loading next visibility...
Identifier
35614, 1993-036ANH
Orbit
LEO
Country
Flag of CISCIS
Related business
Manufacturer
Unknown
Mission
Spacecraft
Bus & Motor
Unknown
Mass
Unknown
Launch date (UTC)
1993-06-16 (33 years ago)
Launch vehicle
Unknown
Launch site
Plesetsk Missile And Space Complex (PKMTR)
Object type
Payload
Rocket body
Debris
Shape & HBR
Unknown shape, 0.1 m
Radar Cross Section
Small (<0.1 m²)

Expand to show TLE details & history
Last TLE update: 2 days ago

TLE from 2 days ago
0 COSMOS 2251 DEB
1 35614U 93036ANH 26035.79048582  .00005472  00000-0  92809-3 0  9998
2 35614  73.9558 222.6076 0074585  62.3064 298.5647 14.67626513885220
Epoch: 2026-02-04T18:58Z
TLE epoch observation values (Epoch: 2026-02-04T18:58:17.974Z)
Latitude
-0.00002°
Longitude
163.08069°
Altitude
646.469 km
Speed
7.548 km/s
True Right ascension
14h 50m 25s
True Declination
0° 00' 00"
Sunlit
Object was in daylight at epoch
Visualization orbit readout
Latitude
Unknown
Longitude
Unknown
Altitude
Unknown
Speed
Unknown
Apparent Right ascension
Unknown
Apparent Declination
Unknown
Sunlit
N/A
Visualization observer readout
Local Sidereal Time
00:44:39
Azimuth
Unknown
Elevation
Unknown
Doppler factor
Unknown
Orbital elements
Apogee altitude
718.792 km
Perigee altitude
613.711 km
Semi-major axis
7,044.388 km
Eccentricity
0.00746
Inclination
73.9558°
RAAN
222.6076°
Arg. of periapsis
62.3064°
True anomaly
297.81071°
Mean anomaly
298.5647°
Eccentric anomaly
298.18804°
Mean motion
3.67095 °/min
Orbital period
98.07 mins
BSTAR
0.00092809
Loading maneuver chart data...
Computing Atmospheric mass density...

Documentation

Showing up to 5 results
|